Temporada 2025 · Ronda 11

Austrian Grand Prix

2025-06-29 · Red Bull Ring · Austria · Austrian Grand Prix · 70Lap · 302.692km
McLaren 1:23:47.693
Victoria de equipo 43pt P1 · P2 1-2
McLaren +2.695
Ferrari +19.820
Vuelta rápida
1:07.924 · L59
Abandono
3
Alexander Albon L15 Max Verstappen L0 Andrea Kimi Antonelli L0
Clima
30°/49°
media aire/pista · seco · humedad 32%
Coche de seguridad
1
desplegado en la vuelta L1
Uso de neumáticos Dirección de carrera
Storylines · This Grand Prix & circuit
Más victorias en este GP
Max Verstappen activo 4 victorias
Conversión pole-victoria 16/40 40%
Most DNFs · all-time P13
Most SC/VSC · all-time P14
Final más ajustado · all-time P4
Most lead changes · all-time P25
Circuito Info
Red Bull Ring Spielberg, Austria
70Lap 302.692km 40 carreras held (1970–) Récord de vuelta 1:05.619 · Carlos Sainz (2020)
Récords Watch · Active drivers ranked at this Grand Prix
P1 Max Verstappen 4 victorias · GP #1
P3 George Russell 2 victorias · → Alain Prost -1
P10 Lewis Hamilton 1 victorias · → Nico Rosberg -1
P1 Fernando Alonso 13 salidas · GP #1
P1 Lewis Hamilton 13 salidas · GP #1
P3 Carlos Sainz 12 salidas · → Lewis Hamilton -1
Carrera Trace · position by lap
SC · vueltas 1–3 salida parada SG 1 6 11 16 21 26 31 36 41 46 51 56 61 66 FIN Norris · parada en boxes L20 Norris · parada en boxes L52 Norris NOR Norris NOR Piastri · parada en boxes L24 Piastri · parada en boxes L53 Piastri PIA Piastri PIA Leclerc · parada en boxes L25 Leclerc · parada en boxes L49 Leclerc LEC Leclerc LEC Hamilton · parada en boxes L26 Hamilton · parada en boxes L50 Hamilton HAM Hamilton HAM Russell · parada en boxes L18 Russell · parada en boxes L45 Russell RUS Russell RUS Lawson · parada en boxes L32 Lawson LAW Lawson LAW Alonso · parada en boxes L33 Alonso ALO Alonso ALO Bortoleto · parada en boxes L21 Bortoleto · parada en boxes L49 Bortoleto BOR Bortoleto BOR Hülkenberg · parada en boxes L12 Hülkenberg · parada en boxes L42 Hülkenberg HUL Hülkenberg HUL Ocon · parada en boxes L19 Ocon · parada en boxes L50 Ocon OCO Ocon OCO Bearman · parada en boxes L11 Bearman · parada en boxes L39 Bearman BEA Bearman BEA Hadjar · parada en boxes L2 Hadjar · parada en boxes L28 Hadjar HAD Hadjar HAD Gasly · parada en boxes L12 Gasly · parada en boxes L38 Gasly GAS Gasly GAS Stroll · parada en boxes L26 Stroll · parada en boxes L53 Stroll STR Stroll STR Colapinto · parada en boxes L13 Colapinto · parada en boxes L39 Colapinto · +5s sumado tras la carrera Colapinto COL Colapinto COL Tsunoda · parada en boxes L18 Tsunoda · parada en boxes L30 Tsunoda · parada en boxes L60 · sanción cumplida Tsunoda TSU Tsunoda TSU Albon · parada en boxes L13 Albon · abandono L15 Albon ALB Albon ALB Verstappen · abandono L0 Verstappen VER Verstappen VER Antonelli · abandono L0 Antonelli ANT Antonelli ANT Sainz · detenido L0 · clasificado P20 Sainz SAI Sainz SAI
SC·VSC parada en boxes sanción cumplida en boxes SG Parrilla de salida FIN clasificación oficial sanción sumada tras la carrera coche detenido posición en cada vuelta (desde 1996)
PosPilotoTeamParrillaVueltaTiempo / EstadoPuntos
1 4 Lando Norris McLaren 1 70 1:23:47.693 25
2 81 Oscar Piastri FL McLaren 3 70 +2.695 18
3 16 Charles Leclerc Ferrari 2 70 +19.820 15
4 44 Lewis Hamilton Ferrari 4 70 +29.020 12
5 63 George Russell Mercedes 5 70 +1:02.396 10
6 30 Liam Lawson RB F1 Team 6 70 +1:07.754 8
7 14 Fernando Alonso Aston Martin 11 69 +1.437 6
8 5 Gabriel Bortoleto Sauber 8 69 +1.952 4
9 27 Nico Hülkenberg Sauber 20 69 +7.720 2
10 31 Esteban Ocon Haas F1 Team 17 69 +9.986 1
11 87 Oliver Bearman Haas F1 Team 15 69 +24.854
12 6 Isack Hadjar RB F1 Team 13 69 +27.957
13 10 Pierre Gasly Alpine F1 Team 10 69 +33.055
14 18 Lance Stroll Aston Martin 16 69 +34.462
15 43 Franco Colapinto Alpine F1 Team 14 69 +42.692
16 22 Yuki Tsunoda Red Bull 18 68 +2.979
R 23 Alexander Albon Williams 12 15 Retired
R 1 Max Verstappen Red Bull 7 0 Retired
R 12 Andrea Kimi Antonelli Mercedes 9 0 Retired
W 55 Carlos Sainz Williams 19 0 Did not start
PosPilotoTeamQ1Q2Q3Diferencia con la pole
1 4 Lando Norris McLaren 1:04.672 1:04.410 1:03.971 POLE Q3
2 16 Charles Leclerc Ferrari 1:05.197 1:04.734 1:04.492 +0.521 Q3
3 81 Oscar Piastri McLaren 1:04.966 1:04.556 1:04.554 +0.583 Q3
4 44 Lewis Hamilton Ferrari 1:05.115 1:04.896 1:04.582 +0.611 Q3
5 63 George Russell Mercedes 1:05.189 1:04.860 1:04.763 +0.792 Q3
6 30 Liam Lawson RB F1 Team 1:05.017 1:05.041 1:04.926 +0.955 Q3
7 1 Max Verstappen Red Bull 1:05.106 1:04.836 1:04.929 +0.865 Q2
8 5 Gabriel Bortoleto Sauber 1:05.123 1:04.846 1:05.132 +0.875 Q2
9 12 Andrea Kimi Antonelli Mercedes 1:05.178 1:05.052 1:05.276 +1.081 Q2
10 10 Pierre Gasly Alpine F1 Team 1:05.054 1:04.846 1:05.649 +0.875 Q2
11 14 Fernando Alonso Aston Martin 1:05.197 1:05.128 +1.157 Q2
12 23 Alexander Albon Williams 1:05.143 1:05.205 +1.172 Q1
13 6 Isack Hadjar RB F1 Team 1:05.063 1:05.226 +1.092 Q1
14 43 Franco Colapinto Alpine F1 Team 1:05.278 1:05.288 +1.307 Q1
15 87 Oliver Bearman Haas F1 Team 1:05.218 1:05.312 +1.247 Q1
16 18 Lance Stroll Aston Martin 1:05.329 +1.358 Q1
17 31 Esteban Ocon Haas F1 Team 1:05.364 +1.393 Q1
18 22 Yuki Tsunoda Red Bull 1:05.369 +1.398 Q1
19 55 Carlos Sainz Williams 1:05.582 +1.611 Q1
20 27 Nico Hülkenberg Sauber 1:05.606 +1.635 Q1
Parrilla de salida
Oficial
Final grid as clasificado, including any desde el pit lane salidas. Source: Jolpica-F1. The arrow compares the grid slot with the clasificación classification; hover a drop to see the stewards document behind it.
No hay datos de esta sesión.
PosPilotoMejor vueltaDiferenciaVueltas
1 63 George Russell 1:05.542 34
2 1 Max Verstappen 1:05.607 +0.065 30
3 81 Oscar Piastri 1:05.697 +0.155 33
4 10 Pierre Gasly 1:05.780 +0.238 34
5 5 Gabriel Bortoleto 1:05.874 +0.332 35
6 23 Alexander Albon 1:05.946 +0.404 35
7 55 Carlos Sainz 1:06.017 +0.475 33
8 44 Lewis Hamilton 1:06.099 +0.557 20
9 6 Isack Hadjar 1:06.110 +0.568 33
10 12 Andrea Kimi Antonelli 1:06.130 +0.588 35
11 27 Nico Hülkenberg 1:06.140 +0.598 32
12 18 Lance Stroll 1:06.160 +0.618 32
13 14 Fernando Alonso 1:06.170 +0.628 32
14 30 Liam Lawson 1:06.189 +0.647 34
15 43 Franco Colapinto 1:06.246 +0.704 34
16 22 Yuki Tsunoda 1:06.262 +0.720 30
17 31 Esteban Ocon 1:06.510 +0.968 32
18 87 Oliver Bearman 1:06.738 +1.196 30
Classified by best lap · source OpenF1 (2023+)
PosPilotoMejor vueltaDiferenciaVueltas
1 4 Lando Norris 1:04.580 35
2 81 Oscar Piastri 1:04.737 +0.157 35
3 1 Max Verstappen 1:04.898 +0.318 24
4 18 Lance Stroll 1:05.022 +0.442 32
5 16 Charles Leclerc 1:05.190 +0.610 32
6 63 George Russell 1:05.229 +0.649 34
7 22 Yuki Tsunoda 1:05.292 +0.712 31
8 5 Gabriel Bortoleto 1:05.411 +0.831 31
9 14 Fernando Alonso 1:05.457 +0.877 31
10 44 Lewis Hamilton 1:05.511 +0.931 34
11 12 Andrea Kimi Antonelli 1:05.537 +0.957 35
12 30 Liam Lawson 1:05.543 +0.963 31
13 6 Isack Hadjar 1:05.547 +0.967 34
14 10 Pierre Gasly 1:05.613 +1.033 36
15 31 Esteban Ocon 1:05.698 +1.118 31
16 23 Alexander Albon 1:05.765 +1.185 37
17 55 Carlos Sainz 1:05.814 +1.234 37
18 87 Oliver Bearman 1:05.835 +1.255 35
19 27 Nico Hülkenberg 1:05.918 +1.338 35
20 43 Franco Colapinto 1:06.176 +1.596 34
Classified by best lap · source OpenF1 (2023+)
PosPilotoMejor vueltaDiferenciaVueltas
1 4 Lando Norris 1:04.324 21
2 81 Oscar Piastri 1:04.442 +0.118 20
3 1 Max Verstappen 1:04.534 +0.210 28
4 16 Charles Leclerc 1:04.574 +0.250 20
5 44 Lewis Hamilton 1:04.790 +0.466 23
6 63 George Russell 1:05.018 +0.694 18
7 12 Andrea Kimi Antonelli 1:05.053 +0.729 18
8 18 Lance Stroll 1:05.062 +0.738 20
9 22 Yuki Tsunoda 1:05.139 +0.815 17
10 30 Liam Lawson 1:05.182 +0.858 19
11 5 Gabriel Bortoleto 1:05.182 +0.858 18
12 14 Fernando Alonso 1:05.243 +0.919 21
13 27 Nico Hülkenberg 1:05.283 +0.959 18
14 23 Alexander Albon 1:05.314 +0.990 22
15 55 Carlos Sainz 1:05.326 +1.002 21
16 10 Pierre Gasly 1:05.366 +1.042 26
17 87 Oliver Bearman 1:05.366 +1.042 21
18 31 Esteban Ocon 1:05.519 +1.195 21
19 43 Franco Colapinto 1:05.546 +1.222 26
20 6 Isack Hadjar 1:06.023 +1.699 18
Classified by best lap · source OpenF1 (2023+)
#PilotoTiempo de vueltaVuelta
1 81 Oscar Piastri 1:07.924 L59
2 81 Oscar Piastri 1:08.085 L60
3 81 Oscar Piastri 1:08.157 L58
4 81 Oscar Piastri 1:08.162 L61
5 4 Lando Norris 1:08.272 L61
6 81 Oscar Piastri 1:08.283 L56
7 4 Lando Norris 1:08.326 L58
8 81 Oscar Piastri 1:08.372 L62
9 4 Lando Norris 1:08.435 L59
10 81 Oscar Piastri 1:08.490 L65
Top 10 más rápida race vueltas — #1 is the más rápida lap of la carrera(FL).
Paradas · cómo se comparan
25s 30s mediana 21.7s Oscar Piastri · L53 · 21.033s Nico Hülkenberg · L42 · 21.045s Franco Colapinto · L39 · 21.087s Lewis Hamilton · L50 · 21.158s Alexander Albon · L13 · 21.210s Nico Hülkenberg · L12 · 21.236s Gabriel Bortoleto · L49 · 21.286s Lewis Hamilton · L26 · 21.287s Isack Hadjar · L2 · 21.297s Charles Leclerc · L25 · 21.308s George Russell · L18 · 21.344s Lando Norris · L52 · 21.427s Liam Lawson · L32 · 21.434s Yuki Tsunoda · L18 · 21.492s Charles Leclerc · L49 · 21.536s Gabriel Bortoleto · L21 · 21.676s Isack Hadjar · L28 · 21.680s Lance Stroll · L53 · 21.763s Oliver Bearman · L39 · 21.771s George Russell · L45 · 21.854s Fernando Alonso · L33 · 21.865s Oliver Bearman · L11 · 21.910s Pierre Gasly · L12 · 21.959s Pierre Gasly · L38 · 22.105s Lando Norris · L20 · 22.131s Esteban Ocon · L50 · 22.284s Oscar Piastri · L24 · 22.599s Lance Stroll · L26 · 22.907s Franco Colapinto · L13 · 23.038s Esteban Ocon · L19 · 23.188s Yuki Tsunoda · L60 · 32.643s · sanción cumplida
más rápida 21.033s Oscar Piastri más lenta 32.643s Yuki Tsunoda sanción cumplida tiempo de paso por el desde el pit lane — un punto por parada
PilotoParadaVueltaTiempoPaso por el desde el pit lane
6 Isack Hadjar 1 2 15:21:36 21.297s
87 Oliver Bearman 1 11 15:32:52 21.910s
10 Pierre Gasly 1 12 15:34:03 21.959s
27 Nico Hülkenberg 1 12 15:34:08 21.236s
23 Alexander Albon 1 13 15:35:11 21.210s
43 Franco Colapinto 1 13 15:35:19 23.038s
63 George Russell 1 18 15:41:08 21.344s
22 Yuki Tsunoda 1 18 15:41:20 21.492s
31 Esteban Ocon 1 19 15:42:29 23.188s
4 Lando Norris 1 20 15:43:12 22.131s
5 Gabriel Bortoleto 1 21 15:44:46 21.676s
81 Oscar Piastri 1 24 15:47:58 22.599s
16 Charles Leclerc 1 25 15:49:16 21.308s
44 Lewis Hamilton 1 26 15:50:30 21.287s
18 Lance Stroll 1 26 15:51:04 22.907s
6 Isack Hadjar 2 28 15:53:23 21.680s
22 Yuki Tsunoda 2 30 15:55:58
30 Liam Lawson 1 32 15:57:59 21.434s
14 Fernando Alonso 1 33 15:59:13 21.865s
10 Pierre Gasly 2 38 16:05:25 22.105s
43 Franco Colapinto 2 39 16:06:47 21.087s
87 Oliver Bearman 2 39 16:06:33 21.771s
27 Nico Hülkenberg 2 42 16:09:58 21.045s
63 George Russell 2 45 16:13:22 21.854s
16 Charles Leclerc 2 49 16:17:34 21.536s
5 Gabriel Bortoleto 2 49 16:18:10 21.286s
44 Lewis Hamilton 2 50 16:18:54 21.158s
31 Esteban Ocon 2 50 16:19:27 22.284s
4 Lando Norris 2 52 16:20:48 21.427s
18 Lance Stroll 2 53 16:23:25 21.763s
81 Oscar Piastri 2 53 16:22:01 21.033s
22 Yuki Tsunoda 3 60 16:31:51 32.643s
paradas
SG 10 20 30 40 50 60 L70
4
2
M19
H32
M19
81
2
M23
H29
M18
16
2
M24
H24
M22
44
2
M25
H24
M21
63
2
M17
M27
H26
30
1
M31
H39
14
1
M32·+1
H37·+1
5
2
M20
M28
H21
27
2
S11
M30
M28
31
2
M18
H31
H20
87
2
S10
H28
M31
6
2
S1
M26
H42
10
2
S11·+3
H26
M32
18
2
M25·+1
H27·+1
S17
43
2
S12
M26
H31
22
3
M17
H12
M30
S9
23
1
M12
M3
1
0
M1
12
0
M1
55
0
M1
S Soft M Medium H Hard I Intermediate W Wet SC·VSC parada en boxes sanción cumplida en boxes
Carrera · ancho de barra = vueltas con ese juego, ·+N = montado usado con N vueltas previas · fuente OpenF1 (2023+)
Compuestos designados para este Gran Premio
C3 Duro C4 Medio C5 Blando
Pirelli designa tres de sus compuestos secos para cada prueba; cuanto mayor es el número C, más blando es el neumático. Documento FIA ↗
Más puestos ganados en pista
6
+18
P13→P12
31
+16
P17→P10
18
+14
P16→P14
30
+13
P6→P6
5
+13
P8→P8
27
+13
P20→P9
87
+13
P15→P11
14
+12
P11→P7
Más puestos perdidos
Pierre Gasly −18 Lance Stroll −15 Isack Hadjar −14
Carrera · Suma de posiciones ganadas en pista vuelta a vuelta — se excluyen la vuelta de salida y las vueltas de boxes propias. Datos de vueltas de carrera desde 1996.
PilotoTipoVueltaCumplidaImpuestaMotivo
22 Yuki Tsunoda No further action Car 22 allegedly forcing Car 18 off track in Turn 3. (No further action.) Doc 46 ↗
Car 22 allegedly forcing Car 18 off track in Turn 3. (No further action.) Doc 46 ↗
12 Andrea Kimi Antonelli Sanción de parrilla ▼3 · 2pt Car 12 caused a collision with Car 1 in Turn 3 (Drop of 3 grid positions for the next Carrera in which the driver participates. 2 penalty points (total) Doc 45 ↗
▼3 · 2pt Car 12 caused a collision with Car 1 in Turn 3 (Drop of 3 grid positions for the next Carrera in which the driver participates. 2 penalty points (total) Doc 45 ↗
43 Franco Colapinto No further action Allegedly forcing Car 87 off of the track in Turn 3 (No further action.) Doc 38 ↗
Allegedly forcing Car 87 off of the track in Turn 3 (No further action.) Doc 38 ↗
22 Yuki Tsunoda Time penalty 33 60 +10s · 2pt Causing a collision with Car 43 in Turn 4. (10 second time penalty. 2 penalty points (total of 4 for the 12 month period).) Doc 40 ↗
Vuelta 33 · Cumplida 60 · +10s · 2pt Causing a collision with Car 43 in Turn 4. (10 second time penalty. 2 penalty points (total of 4 for the 12 month period).) Doc 40 ↗
43 Franco Colapinto Time penalty 57 Tras la carrera +5s · 1pt Car 43 forcing Car 81 off of the track between Turns 3 and 4. (5 second time penalty. 1 penalty point (total of 3 for the 12 month period).) Doc 42 ↗
Vuelta 57 · Cumplida Tras la carrera · +5s · 1pt Car 43 forcing Car 81 off of the track between Turns 3 and 4. (5 second time penalty. 1 penalty point (total of 3 for the 12 month period).) Doc 42 ↗
Vuelta = vuelta en que se impuso la sanción · Cumplida = vuelta en que se cumplió en boxes (en blanco: se sumó al tiempo de carrera)
Time, drive-through and stop-go penalties come from race control messages (OpenF1, 2023+). Parrilla penalties never appear there — the stewards publish them as documents after the session — so they are worked back from the starting grid against the clasificación classification, which gives places actually lost rather than the figure written in the decision.
PilotoTipoVueltaCumplidaImpuestaMotivo
63 George Russell Amonestación Entering the fast lane without a suitable gap at 17:03. (Amonestación to the competitor. Warning to the driver.) Doc 28 ↗
Entering the fast lane without a suitable gap at 17:03. (Amonestación to the competitor. Warning to the driver.) Doc 28 ↗
10 Pierre Gasly Vueltas eliminadas TRACK LIMITS (NEXT LAP PIT)
TRACK LIMITS (NEXT LAP PIT)
Vuelta = vuelta en que se impuso la sanción · Cumplida = vuelta en que se cumplió en boxes (en blanco: se sumó al tiempo de carrera)
Time, drive-through and stop-go penalties come from race control messages (OpenF1, 2023+). Parrilla penalties never appear there — the stewards publish them as documents after the session — so they are worked back from the starting grid against the clasificación classification, which gives places actually lost rather than the figure written in the decision.
PilotoTipoVueltaCumplidaImpuestaMotivo
12 Andrea Kimi Antonelli Fine €100 Pit lane speeding – 80.1 km/h (The competitor (Mercedes-AMG PETRONAS F1 Team) is fined €100) Doc 15 ↗
€100 Pit lane speeding – 80.1 km/h (The competitor (Mercedes-AMG PETRONAS F1 Team) is fined €100) Doc 15 ↗
44 Lewis Hamilton Black-and-white flag warning Unnecessary impeding of Car 12 by Car 44 in turn 4. (Piloto: Warning.) Doc 18 ↗
Unnecessary impeding of Car 12 by Car 44 in turn 4. (Piloto: Warning.) Doc 18 ↗
Vuelta = vuelta en que se impuso la sanción · Cumplida = vuelta en que se cumplió en boxes (en blanco: se sumó al tiempo de carrera)
Time, drive-through and stop-go penalties come from race control messages (OpenF1, 2023+). Parrilla penalties never appear there — the stewards publish them as documents after the session — so they are worked back from the starting grid against the clasificación classification, which gives places actually lost rather than the figure written in the decision.
DocTítuloAsuntoPublished(CET)
1 Event Notes - Pirelli Preview ↗ 2025-06-25 16:53
2025-06-25 16:53 CET
2 Post-Carrera Checks on Car Numbers 81, 16 and 63, 2025 Canadian GP ↗ 2025-06-25 17:47
2025-06-25 17:47 CET
3 Garage Doors ↗ 2025-06-26 14:40
2025-06-26 14:40 CET
4 Car Display Procedure ↗ 2025-06-26 18:02
2025-06-26 18:02 CET
5 Carrera Director's Event Notes ↗ 2025-06-26 18:13
2025-06-26 18:13 CET
6 Event Notes - Circuito Map, Pit Lane, Emergency Exit Map, Quarantine Zone, Red Zones ↗ 2025-06-26 19:19
2025-06-26 19:19 CET
7 PU elements usados per driver up to now ↗ 2025-06-27 09:33
2025-06-27 09:33 CET
8 Self Scrutineering ↗ 2025-06-27 09:36
2025-06-27 09:36 CET
9 Car Presentation Submissions ↗ 2025-06-27 10:55
2025-06-27 10:55 CET
10 Entry List ↗ 2025-06-27 12:00
2025-06-27 12:00 CET
11 New PU elements for this Competition ↗ 2025-06-27 13:33
2025-06-27 13:33 CET
12 P1 Classification ↗ 2025-06-27 14:51
2025-06-27 14:51 CET
13 Summons - Car 44 - Alleged impeding of Car 12 ↗ 44 Lewis Hamilton 2025-06-27 17:50
44 Lewis Hamilton 2025-06-27 17:50 CET
14 Summons - Car 12 - Alleged impeding by Car 44 ↗ 12 Andrea Kimi Antonelli 2025-06-27 18:51
12 Andrea Kimi Antonelli 2025-06-27 18:51 CET
15 Infringement - Car 12 - Pit Lane Speeding ↗ 12 Andrea Kimi Antonelli 2025-06-27 18:29
12 Andrea Kimi Antonelli 2025-06-27 18:29 CET
16 Carrera Director Notes - SC2 - SC1 Times ↗ 2025-06-27 18:29
2025-06-27 18:29 CET
17 P2 Classification ↗ 2025-06-27 18:31
2025-06-27 18:31 CET
18 Infringement - Car 44 - Impeding of Car 12 ↗ 44 Lewis Hamilton 2025-06-27 18:40
44 Lewis Hamilton 2025-06-27 18:40 CET
19 P1 and P2 Scrutineering ↗ 2025-06-27 19:26
2025-06-27 19:26 CET
20 Post-Clasificación Procedure ↗ 2025-06-28 10:23
2025-06-28 10:23 CET
21 Carrera Director's Event Notes V2 ↗ 2025-06-28 11:31
2025-06-28 11:31 CET
22 P3 Classification ↗ 2025-06-28 13:57
2025-06-28 13:57 CET
23 Summons - Car 63 - Alleged Pit Lane Incident ↗ 63 George Russell 2025-06-28 17:32
63 George Russell 2025-06-28 17:32 CET
24 Provisional Clasificación Classification ↗ 2025-06-28 17:32
2025-06-28 17:32 CET
25 Infringement - Clasificación Deleted Vuelta Times ↗ 2025-06-28 17:53
2025-06-28 17:53 CET
26 Doc 26 – Infringement - Clasificación Deleted Vuelta Times – Double Yellow ↗ 2025-06-28 18:00
2025-06-28 18:00 CET
27 Decision - Clasificación SC2-SC1 Times ↗ 2025-06-28 17:58
2025-06-28 17:58 CET
28 Infringement - Car 63 - Pit Lane Incident ↗ 63 George Russell 2025-06-28 18:21
63 George Russell 2025-06-28 18:21 CET
30 P3 and Clasificación Scrutineering ↗ 2025-06-28 20:24
2025-06-28 20:24 CET
31 Final Clasificación Classification ↗ 2025-06-28 20:30
2025-06-28 20:30 CET
32 Provisional Starting Parrilla ↗ 2025-06-28 20:35
2025-06-28 20:35 CET
33 Pre-Carrera Procedure ↗ 2025-06-29 12:03
2025-06-29 12:03 CET
34 Post-Carrera Procedure ↗ 2025-06-29 12:07
2025-06-29 12:07 CET
35 Carrera Director's Event Notes V3 ↗ 2025-06-29 13:02
2025-06-29 13:02 CET
36 Parts and Parameters been replaced and or changed during Parc Fermé ↗ 2025-06-29 13:56
2025-06-29 13:56 CET
37 Final Starting Parrilla ↗ 2025-06-29 14:01
2025-06-29 14:01 CET
38 Decision - Car 43 - Alleged forcing another driver off of the track ↗ 43 Franco Colapinto 2025-06-29 16:35
43 Franco Colapinto 2025-06-29 16:35 CET
40 Infringement - Car 22 - Causing a collision with Car 43 in Turn 4 ↗ 22 Yuki Tsunoda 2025-06-29 16:30
22 Yuki Tsunoda 2025-06-29 16:30 CET
41 Summons - Car 12 - Alleged Causing a Collision ↗ 12 Andrea Kimi Antonelli 2025-06-29 16:41
12 Andrea Kimi Antonelli 2025-06-29 16:41 CET
42 Infringement - Car 43 - Forcing Car 81 off Track ↗ 43 Franco Colapinto 2025-06-29 17:07
43 Franco Colapinto 2025-06-29 17:07 CET
43 Provisional Carrera Classification ↗ 2025-06-29 17:11
2025-06-29 17:11 CET
44 Carrera Deleted Vuelta Times ↗ 2025-06-29 17:21
2025-06-29 17:21 CET
45 Infringement - Car 12 - Causing a collision with car 1 ↗ 12 Andrea Kimi Antonelli 2025-06-29 17:44
12 Andrea Kimi Antonelli 2025-06-29 17:44 CET
46 Decision - Car 22 - Alleged Forcing Car 18 off track ↗ 22 Yuki Tsunoda 2025-06-29 18:51
22 Yuki Tsunoda 2025-06-29 18:51 CET
47 Carrera Scrutineering ↗ 2025-06-29 18:59
2025-06-29 18:59 CET
48 Final Carrera Classification ↗ 2025-06-29 19:16
2025-06-29 19:16 CET
49 Campeonato Puntos ↗ 2025-06-29 19:20
2025-06-29 19:20 CET
FIA official decisions and documents (fia.com) · PDF original PDF links
Record Basis · Calculation basis
Carrera order is the final classification(post-race penalties applied) · clasificación session data 2003+ · lap times 1996+ · pit stops 2012+ (pit-lane transit, not stationary time) · Abandono = Finished(Finished·+N Vueltas) non-Finished statuses
Fuentes de datos: Jolpica-F1 (Ergast compatible API) · weather·Dirección de carrera OpenF1 (2023+) · Last fetched: 2026-09-05 14:15